Change the Weather History Date:

Saturday, December 1, 2012

  Actual Average Record
Temperature  
Mean Temperature 54 °F -  
Max Temperature 66 °F 57 °F 78 °F (1933)
Min Temperature 41 °F 34 °F 15 °F (1964)
Degree Days  
Heating Degree Days 12    
Growing Degree Days 4 (Base 50)    
Moisture  
Dew Point 43 °F    
Average Humidity 77    
Maximum Humidity 93    
Minimum Humidity 45    
Precipitation  
Precipitation 0.00 in - - ()
Sea Level Pressure  
Sea Level Pressure 30.34 in    
Wind  
Wind Speed 1 mph (NNW)    
Max Wind Speed 6 mph    
Max Gust Speed -    
Visibility 5 miles    
Events Fog    
Averages and records for this station are not official NWS values.
T = Trace of Precipitation, MM = Missing Value Source: NWS Daily Summary

Daily Weather History Graph

Daily Weather History Graph

Search for Another Location

Airport or City:

Trip Planner

Search our weather history database for the weather conditions in past years. The results will help you decide how hot, cold, wet, or windy it might be!

Date:

Astronomy

Dec. 01, 2012 Rise Set
Actual Time 7:20 AM EST 5:20 PM EST
Civil Twilight 6:53 AM EST 5:48 PM EST
Nautical Twilight 6:21 AM EST 6:19 PM EST
Astronomical Twilight 5:51 AM EST 6:49 PM EST
Moon 8:07 PM EST (12/1) 9:34 AM EST (12/1)
Length of Visible Light 10h 55m
Length of Day
9h 59m
Waning Gibbous, 92% of the Moon is Illuminated
Dec 1
Waning Gibbous
Dec 6
Last Quarter
Dec 13
New
Dec 20
First Quarter
Dec 28
Full

Hourly Weather History & Observations

Time (EST) Temp. Windchill Dew Point Humidity Pressure Visibility Wind Dir Wind Speed Gust Speed Precip Events Conditions
12:54 AM 48.0 °F - 41.0 °F 77% 30.32 in 10.0 mi Calm Calm - N/A   Partly Cloudy
1:54 AM 48.0 °F - 44.1 °F 86% 30.32 in 7.0 mi NNW 3.5 mph - N/A   Partly Cloudy
2:54 AM 48.0 °F - 44.1 °F 86% 30.32 in 8.0 mi NNW 4.6 mph - N/A   Clear
4:26 AM 44.6 °F - 41.0 °F 87% 30.32 in 1.8 mi Calm Calm - N/A   Clear
4:52 AM 44.6 °F - 39.2 °F 81% 30.32 in 0.5 mi Calm Calm - N/A Fog Fog
4:54 AM 44.1 °F 42.5 °F 41.0 °F 89% 30.32 in 0.5 mi NNW 3.5 mph - N/A Fog Fog
5:04 AM 46.4 °F 45.2 °F 42.8 °F 87% 30.33 in 2.0 mi North 3.5 mph - N/A   Clear
5:12 AM 46.4 °F - 42.8 °F 87% 30.33 in 1.0 mi Calm Calm - N/A   Mist
5:23 AM 46.4 °F - 42.8 °F 87% 30.33 in 2.0 mi Calm Calm - N/A   Clear
5:34 AM 46.4 °F - 42.8 °F 87% 30.33 in 1.2 mi Calm Calm - N/A   Clear
5:44 AM 46.4 °F - 42.8 °F 87% 30.33 in 0.5 mi Calm Calm - N/A Fog Fog
5:54 AM 45.0 °F - 41.0 °F 86% 30.33 in 0.2 mi Calm Calm - N/A Fog Fog
6:06 AM 42.8 °F - 41.0 °F 93% 30.34 in 0.5 mi Calm Calm - N/A Fog Fog
6:17 AM 44.6 °F - 41.0 °F 87% 30.34 in 0.2 mi Calm Calm - N/A Fog Fog
6:54 AM 43.0 °F 41.3 °F 39.9 °F 89% 30.35 in 0.5 mi NNW 3.5 mph - N/A Fog Fog
7:12 AM 42.8 °F - 37.4 °F 81% 30.36 in 0.8 mi Calm Calm - N/A   Mist
7:25 AM 41.0 °F - 37.4 °F 87% 30.37 in 0.2 mi Calm Calm - N/A Fog Fog
7:54 AM 42.1 °F - 39.0 °F 89% 30.38 in 0.2 mi Calm Calm - N/A Fog Fog
8:16 AM 42.8 °F - 39.2 °F 87% 30.38 in 0.5 mi Calm Calm - N/A Fog Fog
8:27 AM 44.6 °F - 42.8 °F 93% 30.38 in 2.0 mi Calm Calm - N/A   Mostly Cloudy
8:31 AM 44.6 °F - 42.8 °F 93% 30.38 in 3.0 mi Calm Calm - N/A   Scattered Clouds
8:54 AM 46.9 °F - 43.0 °F 86% 30.38 in 6.0 mi Calm Calm - N/A   Clear
9:54 AM 51.1 °F - 44.1 °F 77% 30.40 in 10.0 mi Calm Calm - N/A   Clear
10:54 AM 57.0 °F - 45.0 °F 64% 30.40 in 10.0 mi Calm Calm - N/A   Clear
11:54 AM 60.1 °F - 45.0 °F 57% 30.38 in 10.0 mi Calm Calm - N/A   Clear
12:54 PM 63.0 °F - 46.9 °F 56% 30.35 in 10.0 mi ENE 3.5 mph - N/A   Clear
1:54 PM 66.0 °F - 48.9 °F 54% 30.32 in 10.0 mi Variable 5.8 mph - N/A   Clear
2:54 PM 66.9 °F - 46.9 °F 49% 30.31 in 10.0 mi Variable 3.5 mph - N/A   Clear
3:54 PM 66.9 °F - 45.0 °F 45% 30.31 in 10.0 mi SW 4.6 mph - N/A   Partly Cloudy
4:54 PM 64.9 °F - 46.0 °F 50% 30.32 in 10.0 mi Calm Calm - N/A   Clear
6:54 PM 62.1 °F - 45.0 °F 53% 30.34 in 10.0 mi Calm Calm - N/A   Clear
7:54 PM 57.9 °F - 45.0 °F 62% 30.34 in 10.0 mi Calm Calm - N/A   Clear
8:54 PM 53.1 °F - 46.0 °F 77% 30.35 in 10.0 mi East 3.5 mph - N/A   Scattered Clouds
9:54 PM 54.0 °F - 46.0 °F 75% 30.34 in 10.0 mi Calm Calm - N/A   Partly Cloudy
10:54 PM 55.0 °F - 46.0 °F 72% 30.35 in 10.0 mi Calm Calm - N/A   Overcast
11:54 PM 54.0 °F - 48.0 °F 80% 30.35 in 10.0 mi NNW 3.5 mph - N/A   Mostly Cloudy